Theta_e
319 325 325 324 324 319 322 322 317 321 335 336 335 337 338 339 340 340 343 343 342 341 337 337 337 336 336 336 336 336 336 335 334 333 331 330 329 327 326 325 326 330 336 339 339 337 326 320 319
318 324 324 320 323 325 325 317 317 322 338 338 339 339 339 341 342 344 343 341 340 340 339 338 338 338 337 337 336 336 336 336 337 336 336 336 334 331 330 329 327 325 326 335 337 338 337 328 321
318 323 324 322 317 326 326 316 317 335 334 334 335 337 339 340 342 344 342 340 340 340 340 340 339 338 337 337 337 336 335 336 336 335 334 334 334 334 334 334 333 330 328 329 333 334 334 334 329
315 324 319 320 320 317 315 316 320 336 332 333 336 336 338 339 342 342 340 340 339 339 338 339 340 339 339 338 337 335 335 334 334 336 335 335 336 336 336 335 334 334 334 332 330 330 333 335 333
322 322 319 319 318 316 314 317 329 333 329 332 333 333 334 339 341 342 341 340 339 339 337 338 338 339 338 338 337 336 336 335 335 334 333 333 334 336 335 335 335 335 335 334 334 333 332 332 333
320 316 319 319 316 315 316 322 328 326 329 331 333 334 335 339 341 342 343 342 341 339 337 337 337 338 337 337 335 333 327 326 326 324 324 324 323 325 330 330 329 333 335 336 336 336 336 336 336
316 314 316 314 315 316 321 323 325 327 329 330 335 334 334 340 341 342 342 341 340 339 337 337 337 337 337 333 329 323 320 319 317 316 316 315 314 316 318 321 323 325 327 329 334 335 336 336 337
316 312 310 310 314 317 317 318 323 326 322 332 334 333 336 339 340 341 340 340 339 338 337 337 338 337 334 329 322 319 316 313 311 310 310 309 309 309 309 309 310 311 315 317 320 327 326 333 334
315 313 312 311 317 320 315 316 316 319 325 325 330 330 335 339 340 339 340 341 339 339 339 338 337 334 328 320 316 312 310 310 309 309 308 308 308 309 309 309 309 309 309 311 312 314 316 322 328
314 313 312 309 313 315 315 316 317 320 322 325 325 331 335 339 338 339 340 340 340 339 337 336 333 327 318 312 311 310 309 308 308 308 309 309 309 309 309 310 310 310 310 310 310 310 310 311 311
312 314 311 311 312 314 314 314 315 320 321 324 325 328 335 340 339 339 339 337 336 335 333 330 325 314 312 311 310 309 308 308 309 309 309 309 310 310 311 311 311 311 311 311 311 311 311 311 310
312 311 312 311 314 314 313 314 315 316 317 320 324 328 335 339 338 338 337 333 332 331 328 321 314 312 311 310 309 308 308 309 309 309 310 310 310 309 309 309 309 310 312 312 313 313 313 312 312
310 310 311 311 312 312 313 312 314 313 315 323 325 330 334 336 336 334 332 331 330 328 323 315 314 313 311 310 309 309 309 309 309 309 307 306 305 306 306 307 307 308 309 309 309 311 312 313 313
310 310 310 311 311 312 312 312 314 313 315 326 328 330 332 332 332 331 330 330 329 326 317 314 313 311 310 310 309 309 309 309 308 306 305 305 305 304 304 304 305 306 308 310 311 311 311 312 312
310 311 310 309 310 311 312 315 313 312 315 326 328 330 330 330 329 328 328 328 326 317 315 313 312 311 310 310 309 310 309 307 305 305 305 304 304 304 305 307 309 310 310 311 312 312 312 312 312
309 309 315 310 309 311 314 317 311 311 315 321 325 326 326 324 321 321 323 321 316 315 313 312 311 311 310 310 311 310 308 305 305 305 305 304 303 304 306 308 310 311 311 312 312 312 312 312 312
307 312 312 312 308 309 312 312 309 311 311 314 316 316 316 316 316 316 315 315 314 313 313 312 311 311 311 311 311 309 305 305 306 306 306 305 303 302 304 307 310 311 312 312 312 312 312 311 311
311 310 309 311 310 308 310 311 309 309 310 311 312 313 313 314 314 313 312 312 312 312 312 311 311 311 311 311 310 306 305 306 307 307 307 306 305 302 302 305 309 310 311 311 311 312 311 311 312
306 308 310 310 308 308 306 306 307 307 307 309 310 311 312 312 313 313 312 311 311 311 311 311 311 311 311 311 309 305 305 307 308 308 307 307 307 304 301 303 308 310 310 311 310 310 310 310 310
307 308 308 309 308 308 306 308 306 307 308 308 308 309 310 310 311 311 311 311 311 311 311 311 311 311 311 311 309 305 307 309 309 308 307 307 308 306 304 300 304 307 309 310 310 310 310 310 312
306 306 308 309 306 304 304 309 305 305 309 308 309 309 310 311 311 311 310 310 311 311 310 310 311 311 311 311 308 306 307 309 309 309 309 307 307 308 306 302 300 302 304 306 310 310 310 312 312
309 307 307 306 306 310 303 315 305 305 309 309 309 309 311 311 311 311 311 311 311 310 310 310 311 311 311 310 307 306 307 308 308 309 309 309 308 307 308 305 302 300 300 304 309 309 309 311 310
308 307 307 305 305 305 305 309 308 306 310 310 309 310 311 311 311 311 310 311 311 310 310 311 311 311 311 310 307 307 307 308 308 309 309 309 309 307 307 307 305 301 299 300 307 309 310 311 310
305 306 304 303 303 308 304 306 311 308 309 308 308 311 311 311 312 312 311 311 311 311 311 311 311 311 310 308 308 308 309 310 310 310 310 309 308 308 307 308 307 305 300 299 304 309 309 309 310
305 304 308 309 308 311 305 308 311 306 308 307 309 310 311 312 312 313 312 312 312 311 311 310 310 311 311 311 311 311 311 310 309 308 309 308 308 307 307 307 308 306 304 299 300 306 309 307 310
307 304 307 308 307 308 303 310 312 306 306 310 310 311 312 313 312 313 312 312 312 312 312 312 312 312 311 310 309 307 306 306 306 306 306 306 307 307 307 307 307 307 306 303 299 301 307 307 308
308 307 303 302 299 305 305 305 305 306 306 310 310 311 312 311 312 311 311 310 309 309 309 309 309 307 306 306 306 306 306 306 306 306 306 306 307 307 307 308 307 307 307 306 303 299 303 307 308
305 303 306 305 306 308 306 303 309 305 309 309 310 310 310 310 310 310 310 308 306 306 306 306 307 308 308 308 309 309 310 309 308 307 306 306 307 307 307 307 308 308 308 307 306 304 299 302 306
307 308 305 303 304 308 306 310 302 304 307 308 309 308 307 308 308 309 308 307 306 307 307 307 307 308 308 308 308 308 308 308 309 309 309 308 307 306 306 305 306 306 308 308 307 306 303 299 300
305 306 305 308 306 304 303 307 303 303 307 308 306 307 307 307 307 307 306 306 306 306 306 307 308 308 308 308 308 308 308 308 308 308 308 308 308 307 307 307 307 306 305 307 308 308 306 304 301
Wind_Speed
14 13 10 6 2 2 2 4 1 2 2 2 6 5 4 4 2 3 18 13 14 11 12 11 8 6 4 3 3 3 4 4 5 5 6 6 6 6 5 4 4 5 5 5 5 5 6 6 5
17 14 11 4 3 3 3 2 5 3 6 12 11 9 4 3 6 13 17 17 14 12 11 9 7 5 4 2 2 2 3 4 4 4 4 5 5 6 6 6 6 5 5 5 6 7 7 7 6
18 16 8 4 3 6 4 5 3 6 13 6 5 4 4 6 12 19 18 19 16 12 11 9 7 5 3 2 1 2 2 3 3 4 4 4 5 6 7 7 7 6 5 5 7 8 9 9 8
17 9 4 3 6 4 3 2 5 12 2 5 9 7 6 8 16 15 19 19 16 13 10 7 6 4 2 2 1 1 1 2 3 4 6 6 6 7 8 8 8 8 7 7 7 9 9 10 9
21 7 3 3 5 3 3 2 13 7 6 7 7 6 6 15 13 19 18 17 14 13 10 6 4 1 1 1 1 3 4 6 6 7 8 8 9 9 10 10 11 10 10 10 11 11 11 11 12
8 5 3 5 4 3 3 5 9 4 5 9 6 8 7 13 16 20 18 16 15 13 10 7 4 2 1 2 4 6 7 7 8 9 9 10 11 12 13 13 14 13 13 14 14 14 14 13 13
7 4 5 7 5 2 3 9 7 7 6 5 12 5 7 17 20 20 17 15 14 14 10 8 6 4 4 4 6 7 7 8 9 10 11 12 12 13 14 14 15 16 16 16 16 16 16 17 17
7 5 5 3 6 5 6 6 6 6 4 13 10 5 6 23 22 20 18 17 15 13 10 7 6 5 5 6 7 8 9 10 11 12 13 14 14 15 16 16 17 18 18 18 19 19 21 21 21
6 4 4 7 7 5 8 4 4 5 11 7 9 6 9 25 23 22 20 18 15 12 10 7 6 6 7 8 8 9 10 11 12 13 14 15 16 17 18 19 19 20 20 21 21 22 23 24 23
4 4 8 6 4 4 9 5 10 5 7 2 8 10 17 25 25 23 21 18 15 11 9 7 7 7 7 8 9 10 11 13 14 15 16 17 19 20 20 21 21 22 23 24 25 25 26 26 27
3 4 6 4 3 4 8 6 5 12 2 6 10 15 24 28 26 22 18 14 11 10 8 8 7 7 8 9 10 11 12 13 14 16 18 20 21 22 22 22 23 24 24 25 26 27 27 27 28
6 4 5 5 5 4 7 9 6 2 3 5 6 14 28 29 25 21 17 13 11 9 8 8 7 8 9 10 11 12 13 14 16 18 19 19 19 19 20 20 20 20 21 21 21 23 24 25 26
5 4 7 10 10 6 10 6 5 3 2 6 10 17 26 23 20 18 14 13 11 9 9 8 8 9 9 10 11 12 14 16 17 17 18 18 19 19 20 20 21 21 21 22 22 21 21 20 20
7 13 10 10 8 5 6 4 4 1 5 11 13 19 20 18 17 16 16 13 11 9 9 8 8 9 10 10 11 12 15 16 15 15 16 17 18 19 20 21 22 22 21 20 20 20 19 18 18
11 7 5 11 6 3 5 4 2 2 6 12 14 16 16 15 15 15 13 11 10 9 10 9 9 9 10 11 11 14 15 13 12 13 15 17 18 20 20 21 21 20 20 19 19 18 17 17 16
4 5 5 4 8 2 2 3 2 2 6 11 13 13 14 14 12 12 12 11 12 11 11 11 11 10 10 9 12 14 11 11 12 14 16 18 20 20 20 21 21 20 19 19 18 17 15 14 15
7 5 5 3 6 2 3 2 2 0 7 9 11 12 12 12 12 11 11 13 14 13 13 12 12 10 9 10 14 10 9 9 11 14 16 18 20 20 20 21 21 20 19 18 17 15 15 13 13
5 7 4 5 4 3 2 2 2 2 5 11 12 12 13 12 12 11 14 16 16 16 15 15 13 11 9 10 12 8 8 9 12 15 17 18 19 20 20 21 21 20 18 16 15 13 10 11 14
7 6 7 1 3 1 3 3 7 6 7 9 12 13 14 16 15 15 14 14 15 17 17 16 14 11 9 11 9 7 7 9 13 16 17 18 19 20 20 21 21 20 18 15 14 13 11 7 12
7 8 4 1 4 2 5 7 4 2 3 5 8 10 12 14 17 18 20 19 18 16 17 17 14 11 10 12 9 8 7 8 12 15 18 19 19 19 20 19 18 18 18 16 12 11 12 11 11
5 6 4 3 2 4 3 6 2 1 1 2 3 2 3 4 5 5 6 12 13 14 15 14 12 11 11 13 9 9 9 10 13 16 18 20 20 19 19 20 19 19 19 19 15 10 8 10 9
4 3 3 5 3 2 5 3 3 2 2 3 8 6 5 5 5 6 5 2 8 10 12 12 12 11 12 11 10 11 12 14 16 19 20 21 21 20 19 19 19 18 18 18 19 11 9 7 8
3 2 4 3 5 3 7 4 5 3 2 2 4 6 5 5 6 6 6 6 3 3 6 8 9 10 11 10 11 13 15 16 19 21 22 21 21 21 19 18 18 19 19 19 19 11 8 8 9
6 4 6 4 3 3 4 2 5 3 3 2 2 4 2 4 5 6 5 5 3 2 2 5 6 6 7 10 12 15 18 19 22 22 23 21 21 20 19 18 19 18 18 18 18 13 9 9 10
4 5 3 4 4 4 2 1 7 2 1 1 4 4 2 3 5 5 4 3 3 3 1 1 3 4 7 10 13 16 19 21 24 23 22 22 21 20 18 18 18 17 18 17 17 16 12 9 10
4 3 4 5 2 3 3 5 4 2 1 1 2 2 3 3 4 5 6 5 3 2 2 4 6 5 7 11 13 15 16 18 20 20 21 21 21 20 18 19 19 18 18 17 16 15 14 12 9
1 4 4 7 1 2 2 6 6 5 5 1 2 4 5 7 7 6 6 5 3 2 3 4 5 6 7 8 10 12 14 15 16 17 18 18 19 19 19 19 20 19 19 18 16 15 14 14 12
3 5 4 2 1 3 4 5 5 2 5 4 3 6 6 5 3 3 2 2 3 2 1 1 3 4 6 8 10 13 14 16 17 17 17 18 18 18 18 18 19 19 20 19 18 17 15 15 14
2 2 5 3 2 3 1 5 6 5 6 7 7 5 4 3 2 1 2 2 3 2 1 1 5 8 11 14 16 17 18 19 21 21 21 21 21 20 20 20 21 21 21 21 21 20 18 18 17
1 2 3 3 3 1 1 6 2 5 5 8 5 3 1 1 2 2 3 4 3 3 3 6 9 12 14 18 20 22 22 23 24 24 24 24 24 24 24 24 24 24 23 22 23 23 21 21 20
Wind_Direction
207 191 178 174 119 61 197 241 282 162 222 196 155 155 167 50 125 133 140 148 150 147 145 143 143 136 129 117 93 73 62 56 55 53 48 41 35 32 24 6 336 321 336 326 315 342 353 352 343
192 184 165 146 118 156 227 234 229 189 147 120 115 109 72 90 103 141 143 143 138 134 133 130 135 134 132 127 97 62 41 31 28 19 13 10 8 7 4 359 351 338 328 317 316 309 321 332 333
182 173 156 126 135 189 203 196 206 134 137 142 116 104 104 119 134 145 150 146 139 133 125 121 130 128 136 136 98 29 22 7 345 345 339 342 338 339 340 335 332 334 331 312 307 306 306 308 313
167 160 95 139 178 235 208 147 174 147 169 153 142 109 121 142 147 148 148 145 144 141 133 135 130 120 134 136 86 344 329 325 319 325 326 329 319 321 310 314 314 309 308 308 302 296 299 300 301
161 145 115 127 191 250 240 291 168 158 141 139 152 140 124 149 155 152 152 151 153 151 148 151 152 164 197 235 317 318 316 308 303 303 303 301 297 296 302 302 305 305 303 298 293 292 292 294 294
133 137 139 165 194 237 232 191 163 143 152 149 120 125 145 158 159 155 156 160 164 171 166 166 190 201 234 291 302 306 305 304 305 307 308 305 302 298 296 298 298 296 296 294 291 293 288 287 288
129 107 154 151 185 184 206 163 174 153 151 171 148 116 155 158 164 162 165 170 170 176 180 189 204 236 268 288 297 301 303 307 308 308 306 305 304 302 299 298 296 295 293 290 288 285 285 288 288
147 93 128 191 170 195 161 136 159 167 164 146 160 169 174 170 167 169 172 176 175 178 188 201 218 244 271 288 296 301 303 305 305 306 306 306 306 305 303 301 298 294 291 287 283 281 282 282 282
157 86 156 178 154 160 158 129 147 149 144 172 176 173 174 170 167 172 177 181 183 188 197 212 230 254 278 289 296 299 301 304 307 309 311 310 308 306 304 300 297 293 289 286 283 281 278 277 276
114 113 180 172 172 161 151 146 149 158 141 186 182 179 170 174 170 176 181 185 186 192 206 224 246 271 282 293 299 301 306 310 312 313 312 310 306 302 299 296 294 292 289 288 286 284 282 281 279
108 149 171 142 174 167 135 125 142 140 196 208 205 185 174 177 176 181 187 190 191 199 213 236 254 268 287 299 302 306 311 313 313 312 310 308 307 306 305 303 300 296 293 291 289 287 285 283 280
93 89 125 120 157 161 134 131 112 151 172 203 213 187 172 179 184 187 193 195 199 209 229 243 257 280 295 301 303 308 311 315 314 312 311 312 313 313 312 311 308 305 303 300 298 294 292 288 284
95 142 88 106 122 113 131 110 138 106 128 152 159 165 171 180 186 191 197 207 213 224 236 250 274 289 299 305 310 313 314 313 314 316 319 320 320 319 317 316 314 311 308 306 305 304 303 302 296
134 113 104 89 100 87 120 107 135 114 142 149 156 161 174 184 192 199 207 215 227 235 245 261 280 295 305 307 308 310 312 316 319 323 323 323 322 321 320 320 318 316 314 313 312 312 311 310 308
124 87 76 31 16 65 128 68 98 150 164 160 162 170 181 189 204 214 222 230 241 243 251 265 283 290 298 304 313 316 317 318 323 326 329 330 330 330 328 327 324 321 318 316 315 313 313 314 315
80 53 92 350 7 21 140 226 196 162 177 175 176 184 197 209 221 226 230 236 244 250 256 261 276 286 297 301 315 317 318 323 328 334 337 338 337 336 335 334 331 329 325 322 322 320 318 319 320
14 115 97 93 29 301 58 190 172 339 206 200 201 206 216 221 229 236 244 248 249 252 251 259 268 277 289 304 320 315 316 324 332 336 338 339 340 339 338 337 334 329 325 323 322 322 322 327 321
155 112 71 118 337 23 61 214 291 296 227 228 229 230 239 247 244 252 250 250 251 251 249 252 259 267 285 307 314 304 313 326 334 336 337 339 341 341 341 342 342 334 325 321 314 313 323 326 317
119 100 107 67 351 57 23 285 264 273 252 242 239 245 252 257 262 257 253 250 251 250 248 249 252 260 281 305 295 297 311 332 337 335 334 335 339 342 342 344 349 343 333 326 320 321 329 316 314
66 104 69 71 17 100 22 283 281 271 255 254 268 267 272 276 276 271 260 255 250 247 246 245 246 255 275 303 286 289 304 332 344 345 340 334 333 335 340 340 342 348 345 337 322 318 331 333 346
35 99 140 126 83 68 330 303 352 163 95 66 17 17 37 17 5 337 267 239 240 241 242 239 239 250 272 293 277 284 292 309 328 336 338 337 329 327 333 336 337 339 340 342 332 310 314 324 345
70 330 93 96 85 162 5 259 297 359 330 63 48 69 75 62 39 28 21 288 243 238 233 229 235 251 276 281 272 281 293 306 316 322 325 327 328 322 322 328 331 331 333 336 336 314 295 297 316
142 70 80 87 87 83 356 70 263 349 159 163 39 46 64 54 39 37 42 45 62 173 199 213 234 263 282 280 285 292 298 308 309 312 315 317 318 319 313 317 324 331 330 331 335 319 300 291 289
150 80 47 53 67 40 324 102 284 193 191 144 332 7 44 65 51 46 51 62 74 110 205 249 271 285 289 291 294 297 300 304 305 309 309 309 308 312 307 308 314 324 325 326 332 324 298 292 288
73 62 18 13 10 214 330 5 244 252 229 237 299 337 85 86 74 57 62 75 79 86 85 292 289 299 296 298 299 299 301 303 305 309 309 307 307 308 305 301 302 310 316 321 326 329 316 297 287
56 113 141 187 184 267 341 239 256 229 287 275 331 91 115 102 82 65 77 78 69 34 327 309 304 305 294 292 294 300 306 308 308 309 306 305 305 303 303 296 295 299 303 314 317 321 321 312 290
191 55 152 104 72 31 265 286 299 281 262 244 100 120 105 111 114 99 82 70 48 340 293 288 291 297 302 307 310 312 314 316 315 315 314 309 306 300 298 297 293 292 294 300 307 309 308 304 302
49 137 72 7 126 282 294 275 240 276 187 181 151 124 115 108 111 89 61 34 17 26 18 348 332 323 319 317 315 315 316 318 318 316 313 309 306 304 301 299 295 289 287 288 291 297 297 292 291
26 33 48 117 82 175 313 269 207 223 195 178 176 157 134 98 61 222 226 208 200 208 167 311 313 309 303 303 303 304 305 306 306 305 305 305 304 304 303 300 298 294 290 285 282 284 287 287 284
129 149 143 119 236 63 122 273 247 234 219 180 168 182 201 321 320 271 225 205 209 228 274 301 315 313 308 305 304 304 304 303 301 300 298 296 297 296 295 297 297 295 293 287 281 278 279 281 282